This demonstration page uses our WeatherBlox Daily Observations layout. Learn more.

Left ArrowRight Arrow

Hourly Observations for August 27, 2020

Temp ( °F °C ) Dew Point ( °F °C ) Humidity (%) Winds ( mph kmh ) Pressure ( in mb ) Visibility ( mi km ) Precip ( " mm )
12:15 am 00:15 Clear 73 23 73 23 100 100 S 6 9 29.96 1015 10 16.0934 N/A
12:35 am 00:35 Clear 73 23 73 23 100 100 S 6 9 29.96 1015 10 16.0934 N/A
12:55 am 00:55 Clear 73 23 73 23 100 100 SSW 5 7 29.96 1015 10 16.0934 N/A
1:15 am 01:15 Clear 73 23 73 23 100 100 SSW 5 7 29.96 1015 10 16.0934 N/A
1:35 am 01:35 Clear 73 23 73 23 100 100 SSW 5 7 29.96 1015 10 16.0934 N/A
1:55 am 01:55 Clear 73 23 73 23 100 100 SW 7 11 29.95 1014 10 16.0934 N/A
2:15 am 02:15 Clear 75 24 75 24 100 100 SW 8 13 29.95 1014 10 16.0934 N/A
2:35 am 02:35 Clear 73 23 73 23 100 100 SW 8 13 29.95 1014 10 16.0934 N/A
2:55 am 02:55 Clear 73 23 73 23 100 100 SW 7 11 29.95 1014 10 16.0934 N/A
3:15 am 03:15 Partly Cloudy 73 23 73 23 100 100 SW 9 15 29.96 1015 10 16.0934 N/A
3:35 am 03:35 Mostly Cloudy 73 23 73 23 100 100 SW 8 13 29.96 1015 10 16.0934 N/A
3:55 am 03:55 Partly Cloudy 73 23 73 23 100 100 SW 7 11 29.96 1015 10 16.0934 N/A
4:15 am 04:15 Partly Cloudy 73 23 73 23 100 100 SW 7 11 29.96 1015 10 16.0934 N/A
4:35 am 04:35 Partly Cloudy 72 22 72 22 100 100 SW 8 13 29.96 1015 10 16.0934 N/A
4:55 am 04:55 Partly Cloudy 73 23 73 23 100 100 SW 7 11 29.95 1014 10 16.0934 N/A
5:15 am 05:15 Mostly Cloudy 73 23 73 23 100 100 WSW 7 11 29.94 1014 10 16.0934 N/A
5:35 am 05:35 Cloudy 73 23 73 23 100 100 SW 9 15 29.95 1014 10 16.0934 N/A
5:55 am 05:55 Mostly Cloudy 73 23 73 23 100 100 WSW 9 15 29.95 1014 10 16.0934 N/A
6:15 am 06:15 Partly Cloudy 73 23 73 23 100 100 WSW 9 15 29.95 1014 10 16.0934 N/A
6:35 am 06:35 Clear 73 23 73 23 100 100 WSW 7 11 29.95 1014 10 16.0934 N/A
6:55 am 06:55 Clear 73 23 73 23 100 100 WSW 8 13 29.95 1014 10 16.0934 N/A
7:15 am 07:15 Partly Cloudy 73 23 73 23 100 100 WSW 7 11 29.95 1014 10 16.0934 N/A
7:35 am 07:35 Partly Cloudy 73 23 73 23 100 100 WSW 8 13 29.96 1015 10 16.0934 N/A
7:55 am 07:55 Partly Cloudy 73 23 73 23 100 100 SW 7 11 29.96 1015 10 16.0934 N/A
8:15 am 08:15 Partly Cloudy 73 23 73 23 100 100 SW 8 13 29.96 1015 10 16.0934 N/A
8:35 am 08:35 Partly Cloudy 75 24 75 24 100 100 WSW 8 13 29.96 1014 10 16.0934 N/A
8:55 am 08:55 Partly Cloudy 75 24 75 24 100 100 W 7 11 29.96 1014 10 16.0934 N/A
9:15 am 09:15 Partly Cloudy 77 25 77 25 100 100 WSW 10 17 29.96 1015 10 16.0934 N/A
9:35 am 09:35 Partly Cloudy 77 25 77 25 100 100 WSW 9 15 29.96 1015 10 16.0934 N/A
9:55 am 09:55 Partly Cloudy 77 25 77 25 100 100 WSW 13 20 29.96 1015 10 16.0934 N/A
10:15 am 10:15 Sunny 79 26 79 26 100 100 WSW 14 22 29.97 1015 10 16.0934 N/A
10:35 am 10:35 Partly Cloudy 79 26 79 26 100 100 WSW 7 11 29.97 1015 10 16.0934 N/A
10:55 am 10:55 Partly Cloudy 79 26 79 26 100 100 WSW 7 11 29.97 1015 10 16.0934 N/A
11:15 am 11:15 Mostly Cloudy 79 26 79 26 100 100 WSW 12 19 29.97 1015 10 16.0934 N/A
11:35 am 11:35 Cloudy 81 27 81 27 100 100 SW 10 17 29.97 1015 10 16.0934 N/A
11:55 am 11:55 Mostly Cloudy 79 26 79 26 100 100 WSW 12 19 29.97 1015 10 16.0934 N/A
12:15 pm 12:15 Mostly Cloudy 82 28 81 27 94 94 WSW 12 19 29.96 1015 10 16.0934 N/A
12:35 pm 12:35 Mostly Cloudy 81 27 81 27 100 100 SW 13 20 29.97 1015 10 16.0934 N/A
12:55 pm 12:55 Partly Cloudy 81 27 79 26 94 94 SW 9 15 29.97 1015 10 16.0934 N/A
1:15 pm 13:15 Partly Cloudy 81 27 81 27 100 100 WSW 10 17 29.97 1015 10 16.0934 N/A
1:35 pm 13:35 Partly Cloudy 79 26 79 26 100 100 SW 10 17 29.97 1015 10 16.0934 N/A
1:55 pm 13:55 Partly Cloudy 79 26 79 26 100 100 WSW 7 11 29.97 1015 10 16.0934 N/A
2:15 pm 14:15 Partly Cloudy 79 26 79 26 100 100 SW 8 13 29.96 1015 10 16.0934 N/A
2:35 pm 14:35 Partly Cloudy 81 27 81 27 100 100 SW 7 11 29.96 1014 10 16.0934 N/A
2:55 pm 14:55 Sunny 81 27 81 27 100 100 SW 6 9 29.96 1014 10 16.0934 N/A
3:15 pm 15:15 Sunny 81 27 81 27 100 100 SSW 8 13 29.95 1014 10 16.0934 N/A
3:35 pm 15:35 Sunny 81 27 81 27 100 100 SSW 8 13 29.94 1014 10 16.0934 N/A
3:55 pm 15:55 Sunny 81 27 81 27 100 100 SW 9 15 29.93 1013 10 16.0934 N/A
4:15 pm 16:15 Sunny 81 27 81 27 100 100 S 10 17 29.93 1013 10 16.0934 N/A
4:35 pm 16:35 Sunny 81 27 79 26 94 94 SW 12 19 29.92 1013 10 16.0934 N/A
4:55 pm 16:55 Sunny 82 28 79 26 89 89 SW 12 19 29.91 1013 10 16.0934 N/A
5:15 pm 17:15 Sunny 81 27 81 27 100 100 SW 8 13 29.92 1013 10 16.0934 N/A
5:35 pm 17:35 Sunny 81 27 81 27 100 100 SW 8 13 29.92 1013 10 16.0934 N/A
5:55 pm 17:55 Sunny 81 27 81 27 100 100 SW 8 13 29.92 1013 10 16.0934 N/A
6:15 pm 18:15 Sunny 81 27 81 27 100 100 SW 6 9 29.92 1013 10 16.0934 N/A
6:35 pm 18:35 Sunny 81 27 81 27 100 100 SW 6 9 29.92 1013 10 16.0934 N/A
6:55 pm 18:55 Sunny 81 27 81 27 100 100 SW 9 15 29.92 1013 10 16.0934 N/A
7:15 pm 19:15 Sunny 81 27 81 27 100 100 S 7 11 29.92 1013 10 16.0934 N/A
7:35 pm 19:35 Sunny 79 26 79 26 100 100 SSW 6 9 29.91 1013 10 16.0934 N/A
7:55 pm 19:55 Sunny 79 26 79 26 100 100 S 5 7 29.9 1013 10 16.0934 N/A
8:15 pm 20:15 Sunny 77 25 77 25 100 100 S 5 7 29.9 1013 10 16.0934 N/A
8:35 pm 20:35 Clear 77 25 77 25 100 100 S 5 7 29.9 1013 10 16.0934 N/A
8:55 pm 20:55 Clear 75 24 75 24 100 100 S 3 6 29.91 1013 10 16.0934 N/A
9:15 pm 21:15 Clear 75 24 75 24 100 100 S 6 9 29.9 1012 10 16.0934 N/A
9:35 pm 21:35 Clear 75 24 75 24 100 100 SSW 6 9 29.91 1013 10 16.0934 N/A
9:55 pm 21:55 Clear 75 24 75 24 100 100 S 7 11 29.91 1013 10 16.0934 N/A
10:15 pm 22:15 Clear 75 24 75 24 100 100 S 7 11 29.91 1013 10 16.0934 N/A
10:35 pm 22:35 Clear 75 24 75 24 100 100 S 7 11 29.91 1013 10 16.0934 N/A
10:55 pm 22:55 Clear 75 24 75 24 100 100 S 6 9 29.92 1013 10 16.0934 N/A
11:15 pm 23:15 Clear 75 24 75 24 100 100 S 6 9 29.92 1013 10 16.0934 N/A
11:35 pm 23:35 Clear 75 24 75 24 100 100 S 5 7 29.92 1013 10 16.0934 N/A
11:55 pm 23:55 Clear 75 24 75 24 100 100 SSE 3 6 29.93 1013 10 16.0934 N/A

Powered by AerisWeather